Year,Month,Day,Hour,Minute,Value (Times are PST for windgust in km/hr)
2019,06,17,00,01,8.10
2019,06,17,00,04,11.30
2019,06,17,00,08,8.10
2019,06,17,00,10,8.10
2019,06,17,00,11,9.60
2019,06,17,00,14,8.10
2019,06,17,00,22,11.30
2019,06,17,00,23,12.90
2019,06,17,00,24,8.10
2019,06,17,00,25,8.10
2019,06,17,00,26,1.60
2019,06,17,00,27,8.10
2019,06,17,00,29,12.90
2019,06,17,00,31,11.30
2019,06,17,00,32,8.10
2019,06,17,00,34,11.30
2019,06,17,00,35,4.80
2019,06,17,00,37,8.10
2019,06,17,00,38,8.10
2019,06,17,00,43,9.60
2019,06,17,00,44,11.30
2019,06,17,00,45,6.40
2019,06,17,00,46,8.10
2019,06,17,00,47,12.90
2019,06,17,00,48,9.60
2019,06,17,00,50,16.10
2019,06,17,00,51,8.10
2019,06,17,00,54,1.60
2019,06,17,00,55,9.60
2019,06,17,00,56,8.10
2019,06,17,00,57,6.40
2019,06,17,00,58,9.60
2019,06,17,00,59,11.30
2019,06,17,01,00,6.40
2019,06,17,01,01,6.40
2019,06,17,01,02,8.10
2019,06,17,01,03,4.80
2019,06,17,01,04,8.10
2019,06,17,01,05,12.90
2019,06,17,01,06,9.60
2019,06,17,01,07,3.20
2019,06,17,01,08,6.40
2019,06,17,01,09,6.40
2019,06,17,01,10,6.40
2019,06,17,01,11,8.10
2019,06,17,01,12,8.10
2019,06,17,01,13,11.30
2019,06,17,01,14,8.10
2019,06,17,01,15,9.60
2019,06,17,01,16,9.60
2019,06,17,01,17,6.40
2019,06,17,01,18,3.20
2019,06,17,01,19,6.40
2019,06,17,01,20,6.40
2019,06,17,01,26,4.80
2019,06,17,01,27,6.40
2019,06,17,01,28,8.10
2019,06,17,01,29,1.60
2019,06,17,01,30,4.80
2019,06,17,01,31,8.10
2019,06,17,01,33,4.80
2019,06,17,01,34,4.80
2019,06,17,01,35,4.80
2019,06,17,01,36,6.40
2019,06,17,01,37,8.10
2019,06,17,01,38,8.10
2019,06,17,01,39,6.40
2019,06,17,01,40,4.80
2019,06,17,01,41,3.20
2019,06,17,01,42,6.40
2019,06,17,01,43,4.80
2019,06,17,01,44,3.20
2019,06,17,01,45,3.20
2019,06,17,01,46,1.60
2019,06,17,01,47,1.60
2019,06,17,01,48,11.30
2019,06,17,01,49,9.60
2019,06,17,01,50,9.60
2019,06,17,01,51,4.80
2019,06,17,01,52,4.80
2019,06,17,01,56,1.60
2019,06,17,02,01,9.60
2019,06,17,02,02,8.10
2019,06,17,02,03,9.60
2019,06,17,02,04,6.40
2019,06,17,02,05,4.80
2019,06,17,02,06,9.60
2019,06,17,02,07,4.80
2019,06,17,02,08,8.10
2019,06,17,02,09,12.90
2019,06,17,02,10,4.80
2019,06,17,02,11,4.80
2019,06,17,02,12,4.80
2019,06,17,02,13,4.80
2019,06,17,02,14,4.80
2019,06,17,02,15,4.80
2019,06,17,02,17,4.80
2019,06,17,02,18,11.30
2019,06,17,02,19,3.20
2019,06,17,02,21,6.40
2019,06,17,02,22,6.40
2019,06,17,02,24,8.10
2019,06,17,02,25,6.40
2019,06,17,02,26,3.20
2019,06,17,02,27,9.60
2019,06,17,02,28,3.20
2019,06,17,02,29,9.60
2019,06,17,02,30,4.80
2019,06,17,02,31,8.10
2019,06,17,02,32,8.10
2019,06,17,02,33,1.60
2019,06,17,02,37,11.30
2019,06,17,02,38,3.20
2019,06,17,02,39,3.20
2019,06,17,02,41,4.80
2019,06,17,02,42,6.40
2019,06,17,02,43,3.20
2019,06,17,02,44,3.20
2019,06,17,03,12,8.10
2019,06,17,03,13,8.10
2019,06,17,03,14,4.80
2019,06,17,03,15,9.60
2019,06,17,03,16,8.10
2019,06,17,03,17,6.40
2019,06,17,03,18,6.40
2019,06,17,03,19,4.80
2019,06,17,03,20,3.20
2019,06,17,03,21,11.30
2019,06,17,03,22,11.30
2019,06,17,03,23,1.60
2019,06,17,03,25,8.10
2019,06,17,03,26,11.30
2019,06,17,03,27,6.40
2019,06,17,03,28,9.60
2019,06,17,03,29,3.20
2019,06,17,03,31,6.40
2019,06,17,03,32,6.40
2019,06,17,03,33,8.10
2019,06,17,03,36,9.60
2019,06,17,03,37,6.40
2019,06,17,03,38,8.10
2019,06,17,03,39,9.60
2019,06,17,03,42,9.60
2019,06,17,03,43,8.10
2019,06,17,03,44,11.30
2019,06,17,03,46,14.50
2019,06,17,03,47,9.60
2019,06,17,03,48,3.20
2019,06,17,03,54,6.40
2019,06,17,03,57,11.30
2019,06,17,03,58,6.40
2019,06,17,03,59,8.10
2019,06,17,04,00,14.50
2019,06,17,04,04,9.60
2019,06,17,04,05,8.10
2019,06,17,04,06,4.80
2019,06,17,04,11,8.10
2019,06,17,04,14,3.20
2019,06,17,04,15,6.40
2019,06,17,04,18,11.30
2019,06,17,04,19,14.50
2019,06,17,04,26,9.60
2019,06,17,04,37,1.60
2019,06,17,04,57,6.40
2019,06,17,04,58,8.10
2019,06,17,05,03,8.10
2019,06,17,05,04,8.10
2019,06,17,05,05,4.80
2019,06,17,05,06,3.20
2019,06,17,05,11,4.80
2019,06,17,05,28,4.80
2019,06,17,05,29,8.10
2019,06,17,05,30,6.40
2019,06,17,05,31,8.10
2019,06,17,05,32,3.20
2019,06,17,05,35,8.10
2019,06,17,05,36,6.40
2019,06,17,05,37,8.10
2019,06,17,05,38,3.20
2019,06,17,05,50,6.40
2019,06,17,05,51,8.10
2019,06,17,05,52,4.80
2019,06,17,05,53,11.30
2019,06,17,05,54,12.90
2019,06,17,05,55,9.60
2019,06,17,05,56,8.10
2019,06,17,05,57,4.80
2019,06,17,05,58,9.60
2019,06,17,05,59,11.30
2019,06,17,06,00,11.30
2019,06,17,06,01,9.60
2019,06,17,06,02,8.10
2019,06,17,06,08,3.20
2019,06,17,06,09,1.60
2019,06,17,06,10,8.10
2019,06,17,06,11,9.60
2019,06,17,06,12,9.60
2019,06,17,06,13,4.80
2019,06,17,06,19,1.60
2019,06,17,06,22,8.10
2019,06,17,06,23,8.10
2019,06,17,06,24,8.10
2019,06,17,06,28,6.40
2019,06,17,06,34,6.40
2019,06,17,06,35,6.40
2019,06,17,06,36,8.10
2019,06,17,06,37,6.40
2019,06,17,06,55,9.60
2019,06,17,06,56,8.10
2019,06,17,06,58,3.20
2019,06,17,06,59,9.60
2019,06,17,07,00,6.40
2019,06,17,07,01,8.10
2019,06,17,07,02,6.40
2019,06,17,07,05,6.40
2019,06,17,07,06,6.40
2019,06,17,07,07,8.10
2019,06,17,07,08,9.60
2019,06,17,07,09,6.40
2019,06,17,07,10,6.40
2019,06,17,07,12,8.10
2019,06,17,07,13,9.60
2019,06,17,07,14,8.10
2019,06,17,07,27,4.80
2019,06,17,07,48,8.10
2019,06,17,07,49,11.30
2019,06,17,07,51,8.10
2019,06,17,07,53,6.40
2019,06,17,07,54,3.20
2019,06,17,07,55,11.30
2019,06,17,07,56,8.10
2019,06,17,07,57,4.80
2019,06,17,07,58,8.10
2019,06,17,08,04,8.10
2019,06,17,08,05,4.80
2019,06,17,08,40,6.40
2019,06,17,08,41,4.80
2019,06,17,10,00,1.60
2019,06,17,10,03,1.60
2019,06,17,10,05,8.10
2019,06,17,10,06,8.10
2019,06,17,10,07,8.10
2019,06,17,10,08,9.60
2019,06,17,10,09,11.30
2019,06,17,10,10,8.10
2019,06,17,10,11,9.60
2019,06,17,10,12,9.60
2019,06,17,10,13,9.60
2019,06,17,10,14,4.80
2019,06,17,10,15,9.60
2019,06,17,10,16,4.80
2019,06,17,10,17,3.20
2019,06,17,10,18,8.10
2019,06,17,10,19,8.10
2019,06,17,10,20,6.40
2019,06,17,10,21,11.30
2019,06,17,10,22,8.10
2019,06,17,10,23,1.60
2019,06,17,10,29,6.40
2019,06,17,10,30,8.10
2019,06,17,10,31,8.10
2019,06,17,10,35,6.40
2019,06,17,10,36,6.40
2019,06,17,10,37,6.40
2019,06,17,10,38,8.10
2019,06,17,10,39,11.30
2019,06,17,10,40,11.30
2019,06,17,10,41,6.40
2019,06,17,10,44,9.60
2019,06,17,10,45,8.10
2019,06,17,10,46,1.60
2019,06,17,10,48,1.60
2019,06,17,10,50,6.40
2019,06,17,10,51,1.60
2019,06,17,10,52,1.60
2019,06,17,10,53,6.40
2019,06,17,10,55,11.30
2019,06,17,10,56,9.60
2019,06,17,10,57,12.90
2019,06,17,10,58,11.30
2019,06,17,10,59,16.10
2019,06,17,11,00,9.60
2019,06,17,11,01,6.40
2019,06,17,11,02,9.60
2019,06,17,11,03,6.40
2019,06,17,11,04,8.10
2019,06,17,11,05,4.80
2019,06,17,11,06,1.60
2019,06,17,11,07,6.40
2019,06,17,11,08,12.90
2019,06,17,11,09,8.10
2019,06,17,11,10,9.60
2019,06,17,11,11,12.90
2019,06,17,11,12,12.90
2019,06,17,11,13,11.30
2019,06,17,11,14,11.30
2019,06,17,11,15,6.40
2019,06,17,11,16,4.80
2019,06,17,11,17,6.40
2019,06,17,11,18,6.40
2019,06,17,11,19,17.70
2019,06,17,11,20,12.90
2019,06,17,11,21,8.10
2019,06,17,11,22,9.60
2019,06,17,11,23,8.10
2019,06,17,11,24,8.10
2019,06,17,11,25,11.30
2019,06,17,11,26,8.10
2019,06,17,11,27,11.30
2019,06,17,11,28,8.10
2019,06,17,11,29,6.40
2019,06,17,11,30,6.40
2019,06,17,11,32,9.60
2019,06,17,11,33,4.80
2019,06,17,11,35,9.60
2019,06,17,11,36,11.30
2019,06,17,11,37,9.60
2019,06,17,11,38,6.40
2019,06,17,11,39,9.60
2019,06,17,11,40,12.90
2019,06,17,11,41,9.60
2019,06,17,11,42,16.10
2019,06,17,11,43,16.10
2019,06,17,11,44,12.90
2019,06,17,11,45,6.40
2019,06,17,11,46,16.10
2019,06,17,11,47,11.30
2019,06,17,11,48,12.90
2019,06,17,11,49,9.60
2019,06,17,11,50,4.80
2019,06,17,11,51,8.10
2019,06,17,11,52,16.10
2019,06,17,11,53,16.10
2019,06,17,11,54,12.90
2019,06,17,11,55,12.90
2019,06,17,11,56,16.10
2019,06,17,11,57,17.70
2019,06,17,11,58,16.10
2019,06,17,11,59,16.10
2019,06,17,12,00,12.90
2019,06,17,12,01,12.90
2019,06,17,12,02,17.70
2019,06,17,12,03,17.70
2019,06,17,12,04,19.30
2019,06,17,12,05,11.30
2019,06,17,12,06,6.40
2019,06,17,12,07,11.30
2019,06,17,12,08,16.10
2019,06,17,12,09,16.10
2019,06,17,12,10,12.90
2019,06,17,12,11,8.10
2019,06,17,12,12,9.60
2019,06,17,12,13,9.60
2019,06,17,12,14,8.10
2019,06,17,12,15,8.10
2019,06,17,12,16,4.80
2019,06,17,12,17,6.40
2019,06,17,12,18,1.60
2019,06,17,12,19,8.10
2019,06,17,12,20,3.20
2019,06,17,12,21,11.30
2019,06,17,12,22,6.40
2019,06,17,12,23,6.40
2019,06,17,12,24,6.40
2019,06,17,12,25,8.10
2019,06,17,12,26,12.90
2019,06,17,12,27,8.10
2019,06,17,12,28,4.80
2019,06,17,12,29,12.90
2019,06,17,12,30,6.40
2019,06,17,12,31,11.30
2019,06,17,12,32,4.80
2019,06,17,12,33,8.10
2019,06,17,12,34,4.80
2019,06,17,12,35,4.80
2019,06,17,12,36,6.40
2019,06,17,12,37,4.80
2019,06,17,12,38,9.60
2019,06,17,12,39,17.70
2019,06,17,12,40,8.10
2019,06,17,12,41,8.10
2019,06,17,12,42,6.40
2019,06,17,12,43,11.30
2019,06,17,12,44,11.30
2019,06,17,12,45,11.30
2019,06,17,12,46,16.10
2019,06,17,12,47,11.30
2019,06,17,12,48,12.90
2019,06,17,12,49,4.80
2019,06,17,12,50,4.80
2019,06,17,12,51,8.10
2019,06,17,12,52,6.40
2019,06,17,12,53,8.10
2019,06,17,12,54,8.10
2019,06,17,12,55,4.80
2019,06,17,12,56,3.20
2019,06,17,12,57,4.80
2019,06,17,12,58,1.60
2019,06,17,12,59,8.10
2019,06,17,13,00,8.10
2019,06,17,13,01,3.20
2019,06,17,13,02,3.20
2019,06,17,13,03,12.90
2019,06,17,13,04,3.20
2019,06,17,13,05,6.40
2019,06,17,13,06,9.60
2019,06,17,13,07,16.10
2019,06,17,13,08,8.10
2019,06,17,13,09,19.30
2019,06,17,13,10,8.10
2019,06,17,13,11,4.80
2019,06,17,13,12,6.40
2019,06,17,13,14,6.40
2019,06,17,13,15,8.10
2019,06,17,13,16,6.40
2019,06,17,13,17,9.60
2019,06,17,13,18,8.10
2019,06,17,13,19,9.60
2019,06,17,13,20,9.60
2019,06,17,13,21,6.40
2019,06,17,13,23,4.80
2019,06,17,13,24,6.40
2019,06,17,13,25,8.10
2019,06,17,13,26,1.60
2019,06,17,13,27,6.40
2019,06,17,13,28,17.70
2019,06,17,13,29,12.90
2019,06,17,13,30,11.30
2019,06,17,13,31,9.60
2019,06,17,13,32,6.40
2019,06,17,13,33,8.10
2019,06,17,13,34,8.10
2019,06,17,13,37,6.40
2019,06,17,13,38,4.80
2019,06,17,13,39,3.20
2019,06,17,13,40,9.60
2019,06,17,13,41,11.30
2019,06,17,13,42,16.10
2019,06,17,13,43,11.30
2019,06,17,13,44,4.80
2019,06,17,13,45,9.60
2019,06,17,13,46,12.90
2019,06,17,13,47,11.30
2019,06,17,13,48,9.60
2019,06,17,13,49,6.40
2019,06,17,13,50,11.30
2019,06,17,13,51,17.70
2019,06,17,13,52,6.40
2019,06,17,13,53,4.80
2019,06,17,13,54,8.10
2019,06,17,13,55,8.10
2019,06,17,13,56,9.60
2019,06,17,13,57,8.10
2019,06,17,14,00,11.30
2019,06,17,14,01,16.10
2019,06,17,14,02,9.60
2019,06,17,14,03,16.10
2019,06,17,14,04,6.40
2019,06,17,14,05,11.30
2019,06,17,14,06,9.60
2019,06,17,14,07,3.20
2019,06,17,14,09,9.60
2019,06,17,14,10,8.10
2019,06,17,14,11,3.20
2019,06,17,14,12,3.20
2019,06,17,14,13,8.10
2019,06,17,14,14,4.80
2019,06,17,14,15,4.80
2019,06,17,14,16,3.20
2019,06,17,14,17,3.20
2019,06,17,14,18,1.60
2019,06,17,14,19,6.40
2019,06,17,14,21,3.20
2019,06,17,14,22,4.80
2019,06,17,14,23,3.20
2019,06,17,14,24,3.20
2019,06,17,14,25,4.80
2019,06,17,14,26,1.60
2019,06,17,14,27,4.80
2019,06,17,14,28,3.20
2019,06,17,14,29,6.40
2019,06,17,14,30,4.80
2019,06,17,14,31,6.40
2019,06,17,14,32,8.10
2019,06,17,14,33,3.20
2019,06,17,14,34,1.60
2019,06,17,14,35,1.60
2019,06,17,14,36,6.40
2019,06,17,14,37,6.40
2019,06,17,14,38,9.60
2019,06,17,14,39,8.10
2019,06,17,14,40,4.80
2019,06,17,14,41,3.20
2019,06,17,14,42,4.80
2019,06,17,14,43,6.40
2019,06,17,14,44,6.40
2019,06,17,14,45,1.60
2019,06,17,14,48,6.40
2019,06,17,14,49,6.40
2019,06,17,14,50,1.60
2019,06,17,14,51,6.40
2019,06,17,14,52,11.30
2019,06,17,14,53,9.60
2019,06,17,14,54,8.10
2019,06,17,14,55,6.40
2019,06,17,14,56,11.30
2019,06,17,14,57,9.60
2019,06,17,14,59,16.10
2019,06,17,15,00,16.10
2019,06,17,15,04,6.40
2019,06,17,15,05,6.40
2019,06,17,15,06,4.80
2019,06,17,15,08,6.40
2019,06,17,15,09,4.80
2019,06,17,15,10,12.90
2019,06,17,15,11,9.60
2019,06,17,15,12,3.20
2019,06,17,15,13,3.20
2019,06,17,15,14,8.10
2019,06,17,15,15,6.40
2019,06,17,15,16,3.20
2019,06,17,15,17,8.10
2019,06,17,15,18,1.60
2019,06,17,15,20,4.80
2019,06,17,15,21,11.30
2019,06,17,15,22,6.40
2019,06,17,15,23,3.20
2019,06,17,15,24,11.30
2019,06,17,15,25,11.30
2019,06,17,15,26,9.60
2019,06,17,15,27,6.40
2019,06,17,15,28,3.20
2019,06,17,15,31,6.40
2019,06,17,15,32,6.40
2019,06,17,15,33,9.60
2019,06,17,15,34,4.80
2019,06,17,15,35,6.40
2019,06,17,15,36,11.30
2019,06,17,15,37,3.20
2019,06,17,15,38,9.60
2019,06,17,15,39,9.60
2019,06,17,15,40,9.60
2019,06,17,15,41,3.20
2019,06,17,15,42,1.60
2019,06,17,15,43,12.90
2019,06,17,15,44,8.10
2019,06,17,15,45,3.20
2019,06,17,15,46,8.10
2019,06,17,15,47,3.20
2019,06,17,15,48,8.10
2019,06,17,15,49,14.50
2019,06,17,15,50,8.10
2019,06,17,15,51,9.60
2019,06,17,15,52,8.10
2019,06,17,15,53,8.10
2019,06,17,15,54,16.10
2019,06,17,15,55,6.40
2019,06,17,15,56,12.90
2019,06,17,15,57,3.20
2019,06,17,15,58,3.20
2019,06,17,15,59,1.60
2019,06,17,16,00,3.20
2019,06,17,16,01,1.60
2019,06,17,16,02,3.20
2019,06,17,16,03,1.60
2019,06,17,16,04,1.60
2019,06,17,16,06,1.60
2019,06,17,16,07,3.20
2019,06,17,16,24,6.40
2019,06,17,16,25,9.60
2019,06,17,16,26,8.10
2019,06,17,16,27,4.80
2019,06,17,16,28,8.10
2019,06,17,16,29,6.40
2019,06,17,16,30,3.20
2019,06,17,16,31,6.40
2019,06,17,16,32,12.90
2019,06,17,16,33,12.90
2019,06,17,16,34,3.20
2019,06,17,16,35,12.90
2019,06,17,16,36,12.90
2019,06,17,16,37,12.90
2019,06,17,16,38,11.30
2019,06,17,16,39,16.10
2019,06,17,16,40,22.50
2019,06,17,16,41,30.60
2019,06,17,16,42,12.90
2019,06,17,16,43,11.30
2019,06,17,16,44,24.20
2019,06,17,16,45,12.90
2019,06,17,16,46,9.60
2019,06,17,16,47,30.60
2019,06,17,16,48,27.40
2019,06,17,16,49,17.70
2019,06,17,16,50,16.10
2019,06,17,16,51,20.90
2019,06,17,16,52,27.40
2019,06,17,16,53,29.00
2019,06,17,16,54,25.70
2019,06,17,16,55,22.50
2019,06,17,16,56,9.60
2019,06,17,16,57,25.70
2019,06,17,16,58,27.40
2019,06,17,16,59,24.20
2019,06,17,17,00,30.60
2019,06,17,17,01,33.80
2019,06,17,17,02,32.20
2019,06,17,17,03,29.00
2019,06,17,17,04,17.70
2019,06,17,17,05,29.00
2019,06,17,17,06,27.40
2019,06,17,17,07,33.80
2019,06,17,17,08,29.00
2019,06,17,17,09,29.00
2019,06,17,17,10,8.10
2019,06,17,17,11,24.20
2019,06,17,17,12,24.20
2019,06,17,17,13,27.40
2019,06,17,17,14,30.60
2019,06,17,17,15,24.20
2019,06,17,17,16,22.50
2019,06,17,17,17,33.80
2019,06,17,17,18,30.60
2019,06,17,17,19,30.60
2019,06,17,17,20,19.30
2019,06,17,17,21,24.20
2019,06,17,17,22,32.20
2019,06,17,17,23,27.40
2019,06,17,17,24,22.50
2019,06,17,17,25,22.50
2019,06,17,17,26,25.70
2019,06,17,17,27,19.30
2019,06,17,17,28,22.50
2019,06,17,17,29,30.60
2019,06,17,17,30,29.00
2019,06,17,17,31,38.60
2019,06,17,17,32,33.80
2019,06,17,17,33,25.70
2019,06,17,17,34,4.80
2019,06,17,17,35,12.90
2019,06,17,17,36,8.10
2019,06,17,17,37,9.60
2019,06,17,17,38,9.60
2019,06,17,17,39,9.60
2019,06,17,17,40,8.10
2019,06,17,17,41,29.00
2019,06,17,17,42,27.40
2019,06,17,17,43,24.20
2019,06,17,17,44,19.30
2019,06,17,17,45,35.40
2019,06,17,17,46,27.40
2019,06,17,17,47,6.40
2019,06,17,17,48,19.30
2019,06,17,17,49,11.30
2019,06,17,17,50,9.60
2019,06,17,17,51,24.20
2019,06,17,17,52,22.50
2019,06,17,17,53,24.20
2019,06,17,17,54,6.40
2019,06,17,17,55,8.10
2019,06,17,17,56,20.90
2019,06,17,17,57,22.50
2019,06,17,17,58,4.80
2019,06,17,17,59,12.90
2019,06,17,18,00,11.30
2019,06,17,18,01,11.30
2019,06,17,18,02,12.90
2019,06,17,18,03,20.90
2019,06,17,18,04,29.00
2019,06,17,18,05,9.60
2019,06,17,18,06,6.40
2019,06,17,18,07,38.60
2019,06,17,18,08,24.20
2019,06,17,18,09,20.90
2019,06,17,18,10,24.20
2019,06,17,18,11,11.30
2019,06,17,18,12,3.20
2019,06,17,18,13,9.60
2019,06,17,18,14,20.90
2019,06,17,18,15,29.00
2019,06,17,18,16,29.00
2019,06,17,18,17,33.80
2019,06,17,18,18,33.80
2019,06,17,18,19,27.40
2019,06,17,18,20,19.30
2019,06,17,18,21,20.90
2019,06,17,18,22,9.60
2019,06,17,18,23,25.70
2019,06,17,18,24,24.20
2019,06,17,18,25,24.20
2019,06,17,18,26,25.70
2019,06,17,18,27,32.20
2019,06,17,18,28,22.50
2019,06,17,18,29,32.20
2019,06,17,18,30,16.10
2019,06,17,18,31,24.20
2019,06,17,18,32,38.60
2019,06,17,18,33,29.00
2019,06,17,18,34,17.70
2019,06,17,18,35,6.40
2019,06,17,18,36,16.10
2019,06,17,18,37,25.70
2019,06,17,18,38,9.60
2019,06,17,18,39,24.20
2019,06,17,18,40,24.20
2019,06,17,18,41,24.20
2019,06,17,18,42,33.80
2019,06,17,18,43,11.30
2019,06,17,18,44,20.90
2019,06,17,18,45,11.30
2019,06,17,18,46,32.20
2019,06,17,18,47,17.70
2019,06,17,18,48,11.30
2019,06,17,18,49,32.20
2019,06,17,18,50,27.40
2019,06,17,18,51,27.40
2019,06,17,18,52,22.50
2019,06,17,18,53,19.30
2019,06,17,18,54,32.20
2019,06,17,18,55,22.50
2019,06,17,18,56,30.60
2019,06,17,18,57,12.90
2019,06,17,18,58,11.30
2019,06,17,18,59,8.10
2019,06,17,19,00,3.20
2019,06,17,19,01,12.90
2019,06,17,19,02,27.40
2019,06,17,19,03,33.80
2019,06,17,19,04,9.60
2019,06,17,19,05,32.20
2019,06,17,19,06,12.90
2019,06,17,19,07,14.50
2019,06,17,19,08,14.50
2019,06,17,19,09,11.30
2019,06,17,19,10,12.90
2019,06,17,19,11,25.70
2019,06,17,19,12,33.80
2019,06,17,19,13,29.00
2019,06,17,19,14,30.60
2019,06,17,19,15,16.10
2019,06,17,19,16,14.50
2019,06,17,19,17,8.10
2019,06,17,19,18,24.20
2019,06,17,19,19,11.30
2019,06,17,19,20,22.50
2019,06,17,19,21,33.80
2019,06,17,19,22,24.20
2019,06,17,19,23,27.40
2019,06,17,19,24,38.60
2019,06,17,19,25,27.40
2019,06,17,19,26,19.30
2019,06,17,19,27,27.40
2019,06,17,19,28,25.70
2019,06,17,19,29,57.90
2019,06,17,19,30,32.20
2019,06,17,19,31,35.40
2019,06,17,19,32,40.20
2019,06,17,19,33,40.20
2019,06,17,19,34,51.50
2019,06,17,19,35,30.60
2019,06,17,19,36,35.40
2019,06,17,19,37,33.80
2019,06,17,19,38,46.70
2019,06,17,19,39,45.10
2019,06,17,19,40,35.40
2019,06,17,19,41,48.30
2019,06,17,19,42,43.50
2019,06,17,19,43,32.20
2019,06,17,19,44,43.50
2019,06,17,19,45,37.00
2019,06,17,19,46,35.40
2019,06,17,19,47,30.60
2019,06,17,19,48,27.40
2019,06,17,19,49,37.00
2019,06,17,19,50,33.80
2019,06,17,19,51,33.80
2019,06,17,19,52,46.70
2019,06,17,19,53,33.80
2019,06,17,19,54,45.10
2019,06,17,19,55,48.30
2019,06,17,19,56,40.20
2019,06,17,19,57,40.20
2019,06,17,19,58,45.10
2019,06,17,19,59,32.20
2019,06,17,20,00,29.00
2019,06,17,20,01,46.70
2019,06,17,20,02,32.20
2019,06,17,20,03,38.60
2019,06,17,20,04,32.20
2019,06,17,20,05,37.00
2019,06,17,20,06,35.40
2019,06,17,20,07,25.70
2019,06,17,20,08,37.00
2019,06,17,20,09,49.90
2019,06,17,20,10,41.80
2019,06,17,20,11,33.80
2019,06,17,20,12,40.20
2019,06,17,20,13,35.40
2019,06,17,20,14,46.70
2019,06,17,20,15,43.50
2019,06,17,20,16,40.20
2019,06,17,20,17,37.00
2019,06,17,20,18,49.90
2019,06,17,20,19,38.60
2019,06,17,20,20,41.80
2019,06,17,20,21,48.30
2019,06,17,20,22,40.20
2019,06,17,20,23,46.70
2019,06,17,20,24,37.00
2019,06,17,20,25,38.60
2019,06,17,20,26,43.50
2019,06,17,20,27,51.50
2019,06,17,20,28,38.60
2019,06,17,20,29,49.90
2019,06,17,20,30,40.20
2019,06,17,20,31,43.50
2019,06,17,20,32,46.70
2019,06,17,20,33,48.30
2019,06,17,20,34,48.30
2019,06,17,20,35,49.90
2019,06,17,20,36,49.90
2019,06,17,20,37,38.60
2019,06,17,20,38,32.20
2019,06,17,20,39,38.60
2019,06,17,20,40,38.60
2019,06,17,20,41,32.20
2019,06,17,20,42,30.60
2019,06,17,20,43,24.20
2019,06,17,20,44,46.70
2019,06,17,20,45,41.80
2019,06,17,20,46,33.80
2019,06,17,20,47,40.20
2019,06,17,20,48,40.20
2019,06,17,20,49,35.40
2019,06,17,20,50,32.20
2019,06,17,20,51,29.00
2019,06,17,20,52,40.20
2019,06,17,20,53,37.00
2019,06,17,20,54,25.70
2019,06,17,20,55,29.00
2019,06,17,20,56,30.60
2019,06,17,20,57,29.00
2019,06,17,20,58,30.60
2019,06,17,20,59,33.80
2019,06,17,21,00,38.60
2019,06,17,21,01,32.20
2019,06,17,21,02,24.20
2019,06,17,21,03,25.70
2019,06,17,21,04,37.00
2019,06,17,21,05,24.20
2019,06,17,21,06,25.70
2019,06,17,21,07,25.70
2019,06,17,21,08,29.00
2019,06,17,21,09,17.70
2019,06,17,21,10,17.70
2019,06,17,21,11,30.60
2019,06,17,21,12,8.10
2019,06,17,21,13,38.60
2019,06,17,21,14,12.90
2019,06,17,21,15,24.20
2019,06,17,21,16,17.70
2019,06,17,21,17,24.20
2019,06,17,21,18,24.20
2019,06,17,21,19,32.20
2019,06,17,21,20,24.20
2019,06,17,21,21,27.40
2019,06,17,21,22,29.00
2019,06,17,21,23,6.40
2019,06,17,21,24,11.30
2019,06,17,21,25,9.60
2019,06,17,21,26,22.50
2019,06,17,21,27,11.30
2019,06,17,21,28,6.40
2019,06,17,21,29,11.30
2019,06,17,21,30,32.20
2019,06,17,21,31,11.30
2019,06,17,21,32,11.30
2019,06,17,21,33,6.40
2019,06,17,21,34,8.10
2019,06,17,21,36,1.60
2019,06,17,21,37,9.60
2019,06,17,21,38,9.60
2019,06,17,21,39,3.20
2019,06,17,21,40,6.40
2019,06,17,21,41,3.20
2019,06,17,21,44,4.80
2019,06,17,21,45,3.20
2019,06,17,21,46,4.80
2019,06,17,21,47,8.10
2019,06,17,21,48,6.40
2019,06,17,21,49,8.10
2019,06,17,21,50,6.40
2019,06,17,21,51,3.20
2019,06,17,21,53,3.20
2019,06,17,21,55,11.30
2019,06,17,21,56,11.30
2019,06,17,21,57,8.10
2019,06,17,21,58,8.10
2019,06,17,21,59,11.30
2019,06,17,22,00,1.60
2019,06,17,22,01,8.10
2019,06,17,22,02,12.90
2019,06,17,22,03,8.10
2019,06,17,22,04,6.40
2019,06,17,22,06,9.60
2019,06,17,22,07,11.30
2019,06,17,22,10,8.10
2019,06,17,22,11,8.10
2019,06,17,22,12,8.10
2019,06,17,22,13,4.80
2019,06,17,22,16,8.10
2019,06,17,22,17,9.60
2019,06,17,22,18,9.60
2019,06,17,22,19,9.60
2019,06,17,22,20,11.30
2019,06,17,22,21,14.50
2019,06,17,22,22,8.10
2019,06,17,22,23,11.30
2019,06,17,22,24,6.40
2019,06,17,22,25,9.60
2019,06,17,22,26,16.10
2019,06,17,22,27,9.60
2019,06,17,22,28,11.30
2019,06,17,22,29,8.10
2019,06,17,22,30,9.60
2019,06,17,22,31,6.40
2019,06,17,22,34,8.10
2019,06,17,22,35,3.20
2019,06,17,22,36,11.30
2019,06,17,22,37,3.20
2019,06,17,22,38,9.60
2019,06,17,22,39,6.40
2019,06,17,22,40,9.60
2019,06,17,22,41,6.40
2019,06,17,22,42,8.10
2019,06,17,22,43,4.80
2019,06,17,22,44,6.40
2019,06,17,22,46,12.90
2019,06,17,22,47,8.10
2019,06,17,22,48,11.30
2019,06,17,22,49,4.80
2019,06,17,22,50,11.30
2019,06,17,22,51,14.50
2019,06,17,22,52,24.20
2019,06,17,22,53,11.30
2019,06,17,22,54,1.60
2019,06,17,22,55,8.10
2019,06,17,22,56,8.10
2019,06,17,22,58,9.60
2019,06,17,22,59,9.60
2019,06,17,23,00,12.90
2019,06,17,23,01,17.70
2019,06,17,23,02,11.30
2019,06,17,23,03,11.30
2019,06,17,23,04,8.10
2019,06,17,23,05,9.60
2019,06,17,23,06,4.80
2019,06,17,23,09,8.10
2019,06,17,23,10,12.90
2019,06,17,23,11,8.10
2019,06,17,23,14,9.60
2019,06,17,23,15,22.50
2019,06,17,23,16,8.10
2019,06,17,23,17,8.10
2019,06,17,23,18,17.70
2019,06,17,23,19,17.70
2019,06,17,23,20,17.70
2019,06,17,23,21,19.30
2019,06,17,23,22,22.50
2019,06,17,23,23,22.50
2019,06,17,23,24,25.70
2019,06,17,23,25,17.70
2019,06,17,23,26,17.70
2019,06,17,23,27,9.60
2019,06,17,23,28,17.70
2019,06,17,23,29,12.90
2019,06,17,23,30,24.20
2019,06,17,23,31,29.00
2019,06,17,23,32,22.50
2019,06,17,23,33,30.60
2019,06,17,23,34,35.40
2019,06,17,23,35,29.00
2019,06,17,23,36,32.20
2019,06,17,23,37,24.20
2019,06,17,23,38,32.20
2019,06,17,23,39,29.00
2019,06,17,23,40,41.80
2019,06,17,23,41,38.60
2019,06,17,23,42,30.60
2019,06,17,23,43,38.60
2019,06,17,23,44,33.80
2019,06,17,23,45,30.60
2019,06,17,23,46,40.20
2019,06,17,23,47,33.80
2019,06,17,23,48,29.00
2019,06,17,23,49,33.80
2019,06,17,23,50,33.80
2019,06,17,23,51,37.00
2019,06,17,23,52,30.60
2019,06,17,23,53,32.20
2019,06,17,23,54,27.40
2019,06,17,23,55,30.60
2019,06,17,23,56,29.00
2019,06,17,23,57,22.50
2019,06,17,23,58,29.00
2019,06,17,23,59,29.00
